Temperature
17 17 18 18 18 17 17 17 17 17 17 17 18 18 18 18 18 18 18 18 18 18 18 18 18 18 18 18 18 18 18 18 18 18 18 18 18 18 18 18 18 18 18
17 17 17 18 17 17 17 17 17 17 17 17 17 18 18 17 17 17 18 18 18 18 18 18 18 18 18 18 18 18 18 18 18 18 18 18 18 18 18 18 18 18 18
17 17 17 17 17 17 17 17 17 17 17 17 17 17 17 17 17 17 17 17 18 18 18 18 18 18 18 18 18 18 18 18 18 18 18 18 18 18 18 18 18 18 18
17 17 17 17 17 17 17 17 17 17 17 17 17 17 17 17 17 17 17 17 17 17 17 17 17 18 18 18 18 18 18 18 17 17 17 17 17 18 18 18 18 18 18
17 17 17 17 17 17 17 17 17 17 17 17 17 17 17 17 17 17 17 17 17 17 17 17 17 17 17 17 17 17 17 17 17 17 17 17 17 17 17 17 18 18 18
17 17 17 17 17 17 17 17 17 17 17 17 17 17 17 17 17 17 17 17 17 17 17 17 17 17 17 17 17 17 17 17 17 17 17 17 17 17 17 17 17 17 17
17 17 17 17 17 17 17 17 17 17 17 17 17 17 17 17 17 17 17 17 17 17 17 17 17 17 17 17 17 17 17 17 17 17 17 17 17 17 17 17 17 17 17
17 17 17 17 17 17 17 17 17 17 17 17 17 17 17 17 17 17 17 17 17 17 17 17 17 17 17 17 17 17 17 17 17 17 17 17 17 17 17 17 17 17 17
17 17 17 17 17 17 17 17 17 17 17 17 17 17 17 16 17 17 17 17 17 17 17 17 17 17 17 17 17 17 17 17 17 16 16 17 17 17 17 17 17 17 17
17 17 17 17 17 17 17 17 16 16 16 16 16 16 16 16 16 16 16 16 17 17 17 17 17 17 17 17 16 16 16 16 16 16 16 17 17 17 17 17 17 17 17
18 17 17 17 17 16 16 16 16 16 16 16 16 16 16 16 16 16 16 16 16 16 17 17 17 16 16 16 16 16 16 16 16 16 16 16 17 17 17 17 17 17 17
18 18 17 17 17 16 16 16 16 16 16 16 16 16 16 16 16 16 16 16 16 16 16 16 16 16 16 16 16 16 16 16 16 16 16 16 16 16 16 16 16 17 17
18 18 17 17 17 16 16 16 16 16 16 16 16 16 16 16 15 15 16 16 16 15 16 16 16 16 16 16 16 16 16 16 16 16 16 16 16 16 16 16 16 16 16
18 18 17 17 17 17 16 16 16 16 16 16 16 15 16 15 15 15 15 15 15 15 15 15 15 15 16 16 16 16 16 16 16 16 16 16 16 16 16 16 16 16 16
18 18 18 17 17 17 16 16 16 16 16 16 16 16 16 15 15 15 15 15 15 15 15 15 15 15 15 15 15 15 16 15 15 16 16 16 16 16 16 16 16 16 16
18 18 18 17 17 17 17 16 16 16 16 16 15 15 15 15 15 15 15 15 15 15 15 15 15 15 15 15 15 15 15 15 15 15 15 15 15 15 15 15 16 16 16
19 18 18 17 17 17 17 16 16 16 16 16 15 15 15 15 15 15 15 15 15 15 15 15 15 15 15 15 15 15 15 15 15 15 15 15 15 15 15 15 15 15 15
19 18 18 17 17 17 16 16 16 16 16 15 15 15 15 15 15 15 15 15 14 14 15 14 14 14 14 14 15 15 15 15 15 14 14 15 15 15 15 15 15 15 15
19 18 18 17 17 17 16 16 16 16 15 15 15 15 15 15 15 15 15 14 14 14 14 14 14 14 14 14 14 14 14 14 14 14 14 14 14 14 14 14 14 15 15
19 18 18 17 17 17 16 16 16 16 15 15 15 15 15 15 15 14 14 14 14 14 14 14 14 14 14 14 14 14 14 14 14 14 14 14 14 14 14 14 14 14 14
19 18 18 17 17 17 16 16 16 15 15 15 15 15 15 15 14 14 14 14 14 14 14 14 13 13 13 13 14 14 14 14 14 14 14 14 14 14 14 14 14 14 14
18 18 18 17 17 17 16 16 16 15 15 15 15 15 14 14 14 14 14 14 14 13 13 13 13 13 13 13 13 13 13 13 14 14 14 13 13 13 13 13 13 13 13
18 18 18 17 17 17 16 16 15 15 15 15 15 14 14 14 14 14 14 14 13 13 13 13 13 13 13 13 13 13 13 13 13 13 13 13 13 13 13 13 13 13 13
18 18 17 17 17 16 16 16 16 15 15 15 14 14 14 14 14 14 14 14 13 13 13 13 13 12 12 12 13 13 13 13 13 12 13 13 13 13 13 12 12 12 12
18 17 17 17 16 16 16 16 15 15 15 15 14 14 14 14 14 13 13 13 13 13 13 12 12 12 12 12 12 12 13 13 13 12 12 12 12 12 12 12 12 12 12
18 17 17 17 16 16 16 15 15 15 15 14 14 14 14 14 13 13 13 13 13 13 12 12 12 12 12 12 12 12 12 12 12 12 12 12 12 12 12 12 12 12 12
Wind_Speed
7 10 11 11 11 11 12 12 12 13 13 13 13 13 14 14 14 14 14 13 14 14 13 13 13 13 12 11 11 11 10 10 10 9 9 9 9 9 8 7 7 8 9
8 11 12 11 11 11 12 12 13 13 13 13 13 13 13 13 14 14 13 13 13 13 13 13 12 12 11 10 10 10 10 8 8 7 8 8 8 8 8 8 8 8 9
10 11 12 11 12 11 12 12 13 13 13 13 13 13 13 13 13 13 13 12 13 12 12 12 11 11 10 10 9 9 8 7 6 5 4 6 8 8 8 8 8 8 8
11 12 12 11 11 11 11 12 13 13 13 13 13 13 13 13 13 12 12 12 12 12 11 11 10 9 9 8 8 8 8 8 7 6 5 6 8 9 8 8 8 8 7
11 13 12 11 11 11 12 13 13 13 13 13 13 13 13 12 12 12 12 11 11 11 11 10 9 9 8 7 7 7 7 7 7 6 8 10 10 9 9 8 8 8 7
11 13 12 11 11 11 12 12 13 13 13 13 12 12 12 12 12 12 11 11 11 11 11 10 10 10 9 8 7 7 7 7 7 7 9 10 9 9 9 9 9 8 8
10 11 12 11 11 11 12 12 12 12 12 12 11 11 11 11 11 11 11 11 11 10 10 10 10 10 10 9 8 8 8 8 5 7 8 10 9 9 9 8 8 8 8
10 11 12 12 11 12 12 12 11 11 11 10 10 10 10 10 10 10 10 10 10 10 10 9 9 9 9 9 8 8 8 7 6 7 9 9 9 8 8 8 8 8 8
9 9 10 11 11 11 11 11 11 10 9 8 8 8 8 8 9 10 10 9 10 10 9 9 9 9 8 7 7 7 8 9 7 7 9 9 9 9 8 8 8 7 7
7 8 8 10 10 10 10 10 9 9 7 6 6 5 5 7 8 9 9 8 8 8 8 8 8 7 6 6 5 6 6 7 7 9 10 9 9 9 9 8 8 8 7
6 6 6 7 8 9 9 9 8 7 6 5 3 3 3 4 6 7 8 8 7 7 7 6 5 5 4 4 4 5 5 5 8 10 10 10 10 9 9 8 8 8 7
6 6 5 6 6 7 7 7 5 5 4 3 3 4 4 5 6 6 7 6 6 6 5 4 3 2 2 3 3 4 4 6 8 9 10 11 10 9 9 8 8 8 7
7 6 6 5 5 5 4 4 4 4 3 4 4 5 6 5 5 6 5 4 4 4 3 2 2 2 3 4 4 4 5 7 8 9 9 11 10 10 9 8 8 8 7
7 6 6 5 5 5 5 3 3 3 2 3 3 5 5 3 3 3 3 2 3 2 2 2 2 4 4 5 5 5 7 6 8 9 9 11 10 10 9 8 8 8 9
8 7 6 5 6 5 4 2 4 2 2 4 3 3 5 3 2 2 2 3 3 2 2 2 3 4 4 5 6 6 5 6 7 8 8 10 10 10 9 8 8 8 8
8 7 6 5 6 5 4 3 3 3 3 4 2 3 5 4 3 2 3 3 2 3 3 3 4 4 4 4 5 5 5 6 6 6 7 8 9 9 9 9 8 8 7
8 8 7 5 6 5 4 3 3 3 4 3 3 4 5 4 4 3 2 2 2 4 5 4 4 4 3 4 4 5 5 5 5 5 6 6 6 7 8 9 9 8 8
7 8 7 5 6 5 4 4 3 4 4 3 4 4 5 6 6 5 3 2 3 4 3 3 3 3 3 3 3 3 3 4 4 5 5 5 5 6 6 8 8 8 8
7 8 7 5 5 5 5 4 3 3 3 3 4 4 5 6 6 4 2 2 4 3 2 3 3 3 3 3 2 2 2 2 2 4 3 4 5 5 5 6 7 7 7
6 8 7 6 5 5 4 4 3 3 2 3 3 4 5 5 6 4 2 3 4 3 3 3 3 2 2 1 2 2 1 1 2 2 2 3 5 5 6 5 5 6 7
6 7 7 7 6 5 3 3 3 2 2 2 2 4 4 4 4 3 2 3 3 3 2 3 2 2 2 1 2 2 1 1 2 2 2 3 4 5 5 5 5 5 5
6 6 7 7 6 5 3 3 3 3 2 2 2 3 3 4 4 3 2 2 2 3 3 3 2 2 2 2 1 1 1 2 3 2 2 2 3 4 4 5 5 6 6
7 6 6 6 6 5 4 3 3 3 2 2 1 1 2 3 4 4 3 2 2 3 2 1 2 1 1 2 2 1 1 0 1 1 2 2 3 2 3 4 5 5 6
7 6 6 6 6 6 5 4 4 3 2 2 2 2 1 3 3 3 2 2 2 2 1 0 1 1 1 1 2 2 1 1 1 1 2 2 2 2 2 3 4 4 6
7 6 5 6 5 5 5 5 4 3 2 2 3 3 2 2 2 2 2 2 1 1 1 0 1 1 1 1 1 1 2 2 1 0 1 1 2 1 1 2 3 4 5
6 6 5 6 5 5 5 5 5 4 4 3 3 3 2 2 1 2 2 1 1 1 1 1 1 1 1 1 1 1 1 1 1 0 0 1 1 1 1 2 2 3 4
Wind_Direction
78 78 68 61 59 61 60 61 62 63 66 67 66 65 63 62 64 64 67 71 72 71 71 71 68 68 68 68 69 70 72 77 80 84 86 84 81 77 72 75 85 83 84
89 83 74 66 64 65 64 62 64 66 69 69 68 68 66 64 66 66 66 68 70 71 72 72 69 66 66 68 67 66 67 70 75 81 87 86 82 78 75 76 81 84 84
91 88 78 68 67 68 68 67 67 68 69 69 69 69 68 67 66 67 66 68 71 73 72 70 68 64 64 66 65 61 57 56 62 65 84 97 89 81 80 80 84 87 85
91 85 79 72 69 70 70 70 70 69 69 68 69 70 69 69 68 68 69 69 70 71 72 72 70 67 68 66 62 56 48 42 39 31 58 83 88 85 81 80 82 85 84
91 88 85 78 75 74 72 72 73 71 70 70 69 70 69 70 70 70 69 69 69 69 69 70 66 66 70 71 62 52 43 38 27 41 69 77 78 84 83 79 78 80 81
97 96 95 88 83 81 77 75 74 73 71 71 71 70 70 69 70 70 68 68 68 67 66 66 63 62 67 73 64 49 40 33 28 57 73 81 80 83 81 76 76 78 79
105 104 102 100 95 90 85 80 78 76 73 71 71 69 70 70 70 70 69 66 65 66 66 65 65 63 68 70 61 45 34 27 44 62 74 78 79 78 77 75 75 77 78
110 111 111 109 104 99 92 85 83 81 77 74 73 71 73 75 73 71 69 68 66 65 65 65 67 66 64 61 53 40 26 22 46 68 80 78 79 78 78 77 78 78 80
116 120 123 121 110 107 100 91 88 86 84 83 82 77 76 80 78 76 72 69 69 69 68 67 68 69 66 61 53 43 31 22 29 56 76 76 75 77 77 77 77 79 80
118 121 123 125 123 117 109 102 101 101 95 95 98 90 90 92 86 82 79 75 74 72 72 73 72 71 67 59 47 40 29 26 51 64 70 70 71 74 75 76 77 78 78
117 119 122 123 124 124 121 115 120 117 115 114 119 111 102 96 99 97 88 89 86 83 77 75 74 75 73 65 47 35 29 57 73 73 68 67 72 76 76 76 78 78 77
135 122 112 114 115 113 113 126 132 115 130 130 107 89 78 77 84 92 104 97 97 93 84 74 67 47 53 74 62 47 47 59 69 80 72 70 70 75 76 75 74 76 77
130 121 118 113 112 109 101 108 102 92 89 64 72 83 79 80 89 93 101 107 113 106 89 84 82 73 64 73 66 58 60 64 68 76 76 75 73 75 75 75 76 78 78
128 120 121 120 110 102 101 97 100 97 83 64 45 76 83 83 81 91 101 97 100 83 71 56 53 57 51 60 65 61 60 68 74 82 80 79 78 76 73 72 76 78 77
129 132 123 120 109 101 98 104 91 73 84 90 39 65 90 81 83 66 82 88 83 83 62 45 47 43 43 44 54 63 57 67 78 82 82 82 79 74 71 68 75 80 79
145 138 130 129 120 129 129 115 101 100 91 83 59 58 79 80 76 70 67 57 57 66 61 62 59 49 39 46 42 51 52 59 78 87 94 87 84 77 70 66 74 80 82
141 135 132 135 132 119 105 94 93 88 82 69 48 47 68 75 79 76 69 55 42 57 55 53 57 58 48 47 42 39 48 48 64 72 84 93 91 81 75 70 71 73 77
136 133 135 136 124 113 106 93 73 74 77 69 59 40 47 58 64 67 64 52 60 59 51 40 50 47 45 42 38 26 41 40 49 65 76 83 95 96 87 77 72 73 74
140 137 140 140 130 119 111 107 91 81 76 72 67 52 44 53 61 65 54 50 68 65 44 47 47 46 52 42 30 15 46 52 40 53 56 73 88 98 103 94 82 76 79
146 144 143 137 131 121 120 115 99 85 74 66 60 57 49 50 61 59 54 55 64 60 46 55 57 40 50 24 17 32 42 67 55 48 34 52 69 78 80 89 95 84 84
148 146 141 141 138 128 127 122 124 119 100 78 68 62 53 49 66 68 49 53 56 68 66 64 66 51 27 29 39 18 10 39 67 65 46 45 55 64 67 70 78 86 87
156 157 153 151 144 137 136 134 133 128 121 103 90 72 63 52 49 58 62 69 60 57 59 59 68 50 12 7 32 44 25 16 7 28 58 58 55 59 53 59 66 73 83
162 169 161 150 142 139 139 126 119 101 101 106 102 81 65 65 60 51 46 55 73 68 58 46 67 71 29 343 9 68 85 104 319 345 15 52 49 53 48 60 65 68 81
162 164 160 152 152 153 149 142 144 150 158 155 143 133 117 84 77 64 52 54 79 89 80 30 82 67 69 348 336 359 25 95 127 329 334 20 43 51 47 46 65 60 78
159 159 161 155 153 149 153 152 160 157 151 138 131 136 134 119 108 104 84 71 89 100 113 126 95 76 65 55 6 354 8 5 23 107 302 346 360 14 53 59 77 70 75
154 159 162 153 151 151 154 159 168 158 156 144 145 148 153 152 149 124 115 116 130 125 131 123 114 102 51 29 16 26 51 5 322 18 295 312 324 337 1 63 81 88 83
Height
1514 1513 1512 1511 1511 1510 1510 1511 1511 1511 1511 1511 1511 1511 1512 1512 1512 1512 1512 1513 1513 1513 1513 1514 1514 1515 1515 1516 1517 1518 1518 1519 1519 1520 1521 1521 1522 1523 1523 1524 1524 1525 1525
1515 1513 1513 1512 1512 1512 1512 1512 1512 1512 1512 1513 1513 1513 1513 1514 1514 1514 1514 1514 1515 1515 1515 1516 1516 1517 1517 1518 1518 1519 1520 1520 1521 1521 1522 1523 1523 1524 1524 1525 1525 1526 1526
1515 1515 1514 1514 1513 1513 1513 1513 1514 1514 1514 1514 1514 1515 1515 1515 1515 1515 1516 1516 1516 1517 1517 1517 1518 1518 1518 1519 1519 1520 1521 1521 1522 1523 1523 1524 1524 1525 1525 1525 1526 1526 1527
1516 1516 1515 1515 1515 1515 1515 1515 1515 1515 1515 1515 1516 1516 1517 1517 1517 1517 1517 1518 1518 1518 1518 1519 1519 1519 1519 1520 1520 1521 1522 1523 1523 1524 1524 1525 1525 1525 1526 1526 1526 1527 1527
1517 1516 1516 1516 1516 1516 1516 1516 1516 1517 1517 1517 1518 1518 1518 1518 1519 1519 1519 1519 1519 1519 1519 1520 1520 1519 1519 1520 1521 1522 1523 1524 1524 1525 1525 1525 1525 1526 1526 1526 1527 1527 1528
1518 1518 1518 1518 1518 1518 1517 1517 1518 1518 1518 1519 1519 1519 1519 1520 1520 1520 1520 1520 1521 1521 1521 1521 1520 1519 1518 1520 1521 1522 1524 1524 1525 1526 1526 1526 1526 1526 1526 1527 1527 1527 1528
1519 1519 1519 1519 1519 1519 1519 1519 1519 1519 1520 1520 1520 1520 1521 1521 1521 1521 1521 1521 1522 1522 1522 1522 1521 1521 1520 1521 1522 1523 1524 1525 1526 1526 1526 1526 1526 1526 1527 1527 1527 1527 1528
1520 1520 1520 1520 1520 1520 1520 1520 1520 1521 1521 1521 1522 1522 1522 1522 1522 1523 1523 1523 1523 1523 1523 1523 1523 1523 1523 1523 1524 1524 1525 1526 1527 1527 1527 1526 1527 1526 1527 1527 1527 1527 1528
1522 1522 1522 1522 1522 1522 1522 1522 1522 1522 1522 1523 1523 1523 1523 1524 1524 1524 1524 1524 1524 1524 1524 1524 1524 1524 1524 1525 1525 1526 1527 1527 1527 1527 1527 1527 1527 1526 1526 1527 1527 1527 1528
1523 1523 1523 1523 1523 1523 1524 1524 1524 1524 1524 1524 1524 1525 1525 1525 1525 1525 1525 1525 1525 1525 1525 1525 1525 1525 1526 1526 1527 1527 1527 1528 1528 1527 1527 1527 1527 1526 1527 1527 1527 1527 1528
1524 1524 1525 1525 1525 1525 1525 1525 1525 1525 1525 1526 1526 1526 1526 1526 1526 1526 1526 1526 1526 1526 1526 1526 1526 1526 1527 1527 1528 1528 1528 1528 1528 1528 1527 1527 1527 1527 1527 1527 1527 1528 1528
1524 1525 1526 1526 1527 1527 1527 1526 1527 1527 1527 1527 1527 1528 1527 1527 1527 1527 1527 1527 1527 1527 1527 1527 1528 1528 1528 1528 1529 1529 1529 1529 1529 1528 1528 1528 1527 1527 1527 1527 1528 1528 1528
1525 1526 1526 1527 1527 1528 1528 1528 1528 1528 1528 1529 1529 1529 1529 1528 1528 1528 1528 1528 1528 1528 1528 1529 1529 1529 1529 1529 1530 1530 1530 1530 1530 1529 1529 1528 1528 1527 1527 1527 1527 1527 1527
1525 1526 1527 1527 1528 1528 1528 1529 1529 1529 1529 1529 1530 1530 1530 1529 1529 1529 1529 1529 1529 1529 1530 1530 1530 1530 1530 1530 1530 1530 1530 1530 1530 1530 1530 1529 1529 1528 1528 1527 1527 1527 1527
1525 1526 1527 1528 1528 1528 1529 1529 1529 1530 1530 1530 1530 1530 1530 1530 1530 1530 1530 1530 1530 1530 1530 1530 1530 1530 1530 1531 1531 1531 1531 1531 1531 1531 1530 1530 1530 1529 1528 1528 1528 1528 1528
1524 1525 1527 1528 1528 1529 1529 1529 1530 1530 1530 1531 1531 1531 1531 1531 1531 1530 1530 1531 1531 1531 1531 1531 1531 1531 1531 1531 1531 1531 1531 1531 1531 1531 1531 1531 1530 1530 1529 1529 1528 1528 1528
1523 1525 1526 1527 1528 1529 1529 1530 1530 1530 1531 1531 1531 1531 1531 1531 1531 1531 1531 1531 1531 1531 1531 1531 1531 1531 1531 1531 1532 1532 1532 1532 1532 1532 1532 1531 1531 1531 1530 1530 1529 1529 1529
1522 1524 1525 1527 1528 1528 1529 1529 1530 1530 1531 1531 1531 1531 1531 1531 1531 1531 1531 1531 1531 1531 1531 1531 1531 1531 1531 1531 1531 1532 1532 1532 1532 1532 1532 1532 1532 1531 1531 1531 1530 1530 1530
1521 1522 1524 1526 1527 1527 1528 1529 1529 1530 1530 1531 1531 1531 1531 1531 1531 1531 1531 1531 1531 1531 1531 1531 1531 1531 1531 1531 1531 1531 1532 1532 1532 1532 1532 1532 1532 1532 1532 1531 1531 1531 1531
1520 1521 1523 1524 1526 1527 1528 1528 1529 1530 1530 1530 1530 1530 1531 1531 1531 1531 1531 1531 1530 1530 1530 1530 1530 1531 1531 1531 1531 1531 1531 1532 1532 1532 1533 1533 1532 1532 1532 1532 1531 1531 1531
1518 1520 1522 1523 1524 1525 1526 1527 1528 1529 1529 1529 1530 1530 1530 1530 1530 1530 1530 1530 1530 1530 1530 1530 1530 1530 1530 1531 1531 1531 1531 1532 1532 1532 1533 1533 1533 1532 1532 1532 1531 1531 1531
1516 1518 1520 1522 1523 1524 1525 1526 1527 1528 1528 1529 1529 1529 1529 1529 1529 1529 1529 1529 1529 1529 1529 1530 1530 1530 1530 1530 1531 1531 1531 1533 1532 1533 1533 1533 1533 1532 1532 1532 1532 1531 1531
1514 1516 1518 1520 1521 1522 1524 1525 1526 1527 1527 1528 1528 1528 1528 1528 1529 1529 1528 1528 1528 1529 1529 1529 1529 1530 1530 1530 1531 1532 1531 1531 1532 1533 1533 1532 1533 1532 1532 1532 1532 1532 1531
1512 1514 1516 1518 1519 1521 1522 1523 1524 1525 1525 1526 1526 1527 1527 1527 1527 1528 1528 1527 1527 1528 1528 1528 1529 1529 1529 1529 1530 1531 1532 1532 1532 1532 1532 1532 1532 1532 1532 1532 1532 1532 1531
1509 1512 1514 1516 1517 1519 1520 1521 1522 1523 1524 1525 1525 1526 1526 1526 1526 1527 1527 1526 1527 1527 1527 1528 1528 1528 1528 1529 1529 1530 1530 1531 1531 1531 1531 1531 1532 1532 1532 1532 1532 1532 1531
1507 1509 1512 1514 1515 1516 1518 1519 1520 1521 1522 1523 1524 1524 1524 1525 1525 1525 1525 1525 1526 1526 1526 1527 1527 1527 1528 1528 1529 1529 1529 1530 1530 1530 1530 1530 1530 1531 1531 1531 1531 1531 1531